Location: Unspecified
(40.7945°N, 111.1337°W)
Time: 17:51:39
(UTC-06:00)

Hubble Space Telescope - Pass Details

Date: 30 March 2019
Orbit: 537 x 540 km, 28.5° (Epoch: 22 April)

Event Time Altitude Azimuth Distance (km) Brightness Sun altitude
Rises 21:09:26 0° 244° (WSW) 2,668 5.0 -16.0°
Reaches altitude 10° 21:12:49 10° 215° (SW) 1,778 3.6 -16.6°
Maximum altitude 21:14:38 13° 189° (S) 1,615 3.1 -16.9°
Enters shadow 21:15:34 12° 175° (S) 1,659 3.0 -17.0°
